Regional Weather Roundup
Issued by NWS

Home | Current Version | Previous Version | Graphics & Text | Print | Product List | Glossary On
Versions: 1 2 3 4 5 6 7 8 9 10 11 12 13 14 15 16 17 18 19 20 21 22 23 24 25 26 27 28 29 30 31 32 33 34 35 36 37 38 39 40 41 42 43 44 45 46 47 48 49 50
000
ASUS43 KIND 200809
RWRIN

WEATHER ROUNDUP FOR INDIANA
NATIONAL WEATHER SERVICE INDIANAPOLIS IN
400 AM EDT SAT SEP 20 2014

NOTE: "FAIR" INDICATES FEW OR NO CLOUDS BELOW 12,000 FEET WITH NO
SIGNIFICANT WEATHER AND/OR OBSTRUCTIONS TO VISIBILITY.

* - STATION DOES NOT REPORT WEATHER SUCH AS PRECIPITATION OR FOG.

+ - STATION NOT QUALITY CONTROLLED BY THE NATIONAL WEATHER SERVICE.
    USE DATA WITH CAUTION...ESPECIALLY DEWPOINT AND RELATIVE
    HUMIDITY OBSERVATIONS.

INZ001>003-010>013-019-020-200900-
NORTHWEST INDIANA

CITY           SKY/WX    TMP DP  RH WIND       PRES   REMARKS
GARY /AIRPORT/ CLEAR     62  52  68 S6        29.96F
KNOX *+        CLEAR     55  49  81 S5        29.99R
LA PORTE +     PTCLDY    53  49  87 S5        29.99S
MICHIGAN CITY+ CLEAR     57  46  67 S7        29.97F
MONTICELLO +   CLEAR     58  51  79 S7        29.99R
RENSSELAER +   CLEAR     55  54  94 S5        29.99R
VALPARAISO     CLEAR     57  50  77 S7        29.99R

$$

LMZ046-743>745-200900-
SOUTHERN LAKE MICHIGAN

STATION/POSITION TIME  TEMP WIND        PRES
                       AIR  DIR/SP/G
                 (UTC) (F)  (DEG/KT/KT) (MB)
MICHIGAN CITY    0800   62  160/ 14/ 20   N/A

$$

INZ004-005-014>016-021>024-200900-
NORTH CENTRAL INDIANA

CITY           SKY/WX    TMP DP  RH WIND       PRES   REMARKS
GOSHEN         CLEAR     56  48  74 SW6       30.00R
LOGANSPORT +   CLEAR     54  48  82 S7        30.01R
PERU/GRISSOM   CLEAR     54  54 100 S6        30.01R
ROCHESTER +    CLEAR     61  52  72 S7        30.00S
SOUTH BEND     CLEAR     58  49  72 S7        29.99R
WARSAW +       CLEAR     55  50  82 S5        30.00R

$$

INZ006>009-017-018-025>027-200900-
NORTHEAST INDIANA

CITY           SKY/WX    TMP DP  RH WIND       PRES   REMARKS
ANGOLA *+      CLEAR     54  46  76 S3        30.00S
AUBURN +       CLEAR     54  46  76 CALM      30.02R
FORT WAYNE     PTCLDY    52  48  86 SW7       30.02S
HUNTINGTON +   CLEAR     55  49  82 S3        30.01R

$$

INZ028-029-035-036-043>045-051>053-200900-
WEST CENTRAL INDIANA

CITY           SKY/WX    TMP DP  RH WIND       PRES   REMARKS
GREENCASTLE +  CLEAR     54  52  94 CALM      30.03S
LAFAYETTE      CLEAR     56  51  84 CALM      30.00R
TERRE HAUTE    CLEAR     52  50  93 CALM      30.01F

$$

INZ030>032-037>040-046>048-054>057-064-065-200900-
CENTRAL INDIANA

CITY           SKY/WX    TMP DP  RH WIND       PRES   REMARKS
CP ATTERBURY + CLEAR     52  50  93 CALM      30.04S
FRANKFORT +    CLEAR     55  55 100 S3        30.02S
GREENWOOD *+   CLEAR     59  54  82 S7        30.03F
INDIANAPOLIS   CLEAR     56  51  84 S5        30.01F
-EAGLE CREEK   CLEAR     57  51  80 CALM      30.02S
KOKOMO *+      CLEAR     55  48  76 S9        30.02R
MARION +       CLEAR     53  48  83 S6        30.03R
MT COMFORT *+  CLEAR     55  50  82 S5        30.03F
SHELBYVILLE    CLEAR     56  50  80 S6        30.03F
ZIONSVILLE +   CLEAR     55  49  81 S3        30.03S

$$

INZ033-034-041-042-049-050-058-059-200900-
EAST CENTRAL INDIANA

CITY           SKY/WX    TMP DP  RH WIND       PRES   REMARKS
MUNCIE         CLEAR     59  50  72 S8        30.02F

$$

INZ060-061-067>069-081>083-085>088-200900-
SOUTHWEST INDIANA

CITY           SKY/WX    TMP DP  RH WIND       PRES   REMARKS
EVANSVILLE     CLEAR     61  57  87 CALM      30.02F
WASHINGTON +   CLEAR     58  57  95 S5        30.01F

$$

INZ062-063-066-070>080-084-089>092-200900-
SOUTH CENTRAL AND SOUTHEAST INDIANA

CITY           SKY/WX    TMP DP  RH WIND       PRES   REMARKS
BLOOMINGTON    CLEAR     58  54  86 SE6       30.03F
SEYMOUR +      FOG       55  54  94 CALM      30.03  VSB 1/2

$$




USA.gov is the U.S. government's official web portal to all federal, state and local government web resources and services.